[[{"header":{"parameterUnit":"m.s-1","parameterCategory":1,"la1":30.2991,"la2":30.254,"lo1":-89.0895,"lo2":-89.0444,"dy":0.0017,"dx":0.0017,"nx":28,"ny":28,"refTime":"2024-12-05T03:00:00:Z","depth":0,"parameterNumber":2,"parameterNumberName":"U-component_of_WINDS"},"data":[0,0,0,0,0,0,0,0,0,0,0,0,0,0,0,0,0,0,0,0,0,0,0,0,0,0,0,0,0,0,0,0,0,0,0,0,0,0,0,0,0,0,0,0,0,0,0,0,0,0,0,0,0,0,0,0,0,0,-1.1106,-1.1107,0,-1.1146,-1.1146,-1.1147,-1.1178,-1.1179,-1.1179,-1.1179,-1.1219,-1.122,-1.122,0,0,0,0,0,0,0,0,0,0,0,0,0,-1.1057,-1.1058,-1.1106,-1.1107,-1.1107,-1.1146,-1.1146,-1.1147,-1.1178,-1.1179,-1.1179,-1.1179,-1.1219,-1.1219,-1.122,0,0,0,0,0,0,0,0,0,0,0,0,0,-1.1085,-1.1058,-1.1106,-1.1127,-1.113,-1.1146,-1.1146,-1.1147,-1.1178,-1.1179,-1.1179,-1.1179,-1.1218,-1.1219,-1.122,-1.1218,0,0,-1.1224,-1.1224,0,0,0,0,0,0,0,0,-1.1084,-1.1087,-1.1124,-1.1126,-1.1129,-1.1158,-1.1143,-1.1171,-1.1178,-1.116,-1.1179,-1.118,-1.1198,-1.1201,-1.1207,-1.122,-1.1222,-1.1224,-1.1225,-1.1225,-1.1226,0,0,0,0,0,0,0,-1.1082,-1.1086,-1.1122,-1.1124,-1.1127,-1.1135,-1.1139,-1.1149,-1.1176,-1.1161,-1.1164,-1.1168,-1.1199,-1.1206,-1.1208,-1.1222,-1.1224,-1.1225,-1.1226,-1.1226,-1.1235,-1.1235,0,0,0,0,0,0,-1.1077,-1.1084,-1.1121,-1.1123,-1.1107,-1.1135,-1.114,-1.1148,-1.1176,-1.118,-1.1168,-1.1169,-1.1204,-1.1207,-1.121,-1.1209,-1.1225,-1.1226,-1.1227,-1.1235,-1.1235,-1.1234,0,0,0,0,0,0,-1.1075,-1.108,-1.1119,-1.1104,-1.111,-1.1136,-1.1144,-1.1148,-1.1155,-1.118,-1.1185,-1.1169,-1.1204,-1.1208,-1.1216,-1.1211,-1.1227,-1.1228,-1.1236,-1.1235,-1.1235,-1.1207,0,0,0,0,0,0,-1.1074,-1.1079,-1.1079,-1.1104,-1.111,-1.1125,-1.1143,-1.1149,-1.1157,-1.116,-1.1183,-1.1188,-1.1205,-1.1214,-1.1217,-1.1213,-1.1229,-1.1237,-1.1236,-1.1235,-1.1208,-1.1205,-1.1203,0,0,0,0,0,-1.1072,-1.1069,-1.1078,-1.1083,-1.111,-1.1124,-1.1128,-1.1148,-1.1156,-1.1156,-1.1172,-1.1187,-1.1211,-1.1215,-1.1218,-1.1214,-1.1237,-1.1236,-1.1235,-1.121,-1.1206,-1.1203,0,0,0,0,0,0,-1.1042,-1.1073,-1.1083,-1.1089,-1.1104,-1.1129,-1.113,-1.1143,-1.1156,-1.1158,-1.1182,-1.1187,-1.1192,-1.1204,-1.1207,-1.1213,-1.1226,-1.1225,-1.1205,-1.1202,-1.1199,-1.1196,-1.123,0,0,0,0,0,-1.1036,-1.1045,-1.1071,-1.1073,-1.108,-1.1104,-1.111,-1.1124,-1.1141,-1.1147,-1.1164,-1.1179,-1.119,-1.1197,-1.1208,-1.121,-1.1216,-1.1209,-1.1206,-1.1204,-1.1203,-1.1205,-1.1203,-1.1231,-1.1231,-1.1231,0,0,-1.1024,-1.1042,-1.1046,-1.1068,-1.1081,-1.1089,-1.1109,-1.1117,-1.1123,-1.1148,-1.1157,-1.1169,-1.1188,-1.1193,-1.1196,-1.1203,-1.1197,-1.1203,-1.1201,-1.1201,-1.1204,-1.1201,-1.1199,-1.123,-1.123,-1.1231,0,0,-1.1006,-1.1021,-1.1024,-1.1037,-1.1057,-1.1072,-1.1073,-1.1097,-1.1106,-1.1115,-1.1134,-1.1142,-1.116,-1.1172,-1.1181,-1.1167,-1.1181,-1.117,-1.1156,-1.1157,-1.1155,-1.1153,-1.1149,-1.1147,-1.117,-1.117,-1.117,0,-1.0988,-1.1002,-1.1024,-1.1031,-1.104,-1.1063,-1.1066,-1.1078,-1.11,-1.1106,-1.1113,-1.1137,-1.1151,-1.1159,-1.1155,-1.1161,-1.1163,-1.1168,-1.1154,-1.1152,-1.1151,-1.1146,-1.1145,-1.1168,-1.1168,-1.1169,-1.1169,0,-1.0979,-1.0988,-1.0989,-1.101,-1.1019,-1.1024,-1.1046,-1.1052,-1.1066,-1.108,-1.1089,-1.1106,-1.1122,-1.1125,-1.1138,-1.1134,-1.1138,-1.1149,-1.1163,-1.1146,-1.1143,-1.1141,-1.1166,-1.1167,-1.1167,-1.1167,0,0,-1.0944,-1.0977,-1.0977,-1.0987,-1.101,-1.1017,-1.1023,-1.1039,-1.1044,-1.1058,-1.1064,-1.1079,-1.1089,-1.1099,-1.1113,-1.1115,-1.1103,-1.1126,-1.1127,-1.1121,-1.1101,-1.1092,-1.109,-1.1112,-1.1112,-1.1112,-1.1099,0,-1.093,-1.0942,-1.0962,-1.0968,-1.0976,-1.0998,-1.1003,-1.1018,-1.1032,-1.1041,-1.1056,-1.1066,-1.1079,-1.1085,-1.1088,-1.1104,-1.1099,-1.1105,-1.1118,-1.1118,-1.1112,-1.1088,-1.1079,-1.1066,-1.1098,-1.1098,-1.1097,0,-1.0915,-1.0929,-1.0935,-1.0958,-1.0962,-1.0967,-1.0982,-1.0991,-1.1008,-1.1018,-1.1028,-1.1044,-1.1051,-1.1063,-1.1073,-1.1077,-1.1083,-1.1092,-1.1092,-1.1094,-1.1107,-1.1089,-1.1063,-1.1061,-1.1095,-1.1096,-1.1096,0,-1.0889,-1.0909,-1.0915,-1.0923,-1.095,-1.0952,-1.0963,-1.0981,-1.0989,-1.1002,-1.1007,-1.1021,-1.1029,-1.1039,-1.1058,-1.1065,-1.1067,-1.108,-1.1075,-1.1074,-1.1074,-1.1074,-1.1048,-1.1078,-1.1078,-1.1078,-1.1078,0,-1.0871,-1.0875,-1.0904,-1.0908,-1.0912,-1.0934,-1.0937,-1.0951,-1.0966,-1.0973,-1.0993,-1.0999,-1.1023,-1.1032,-1.1047,-1.1053,-1.1057,-1.1065,-1.1069,-1.1063,-1.1062,-1.1068,-1.1069,-1.1078,-1.1078,-1.1078,-1.1078,0,-1.0843,-1.0863,-1.0871,-1.0895,-1.0902,-1.0904,-1.0924,-1.0929,-1.0944,-1.0952,-1.0955,-1.0978,-1.099,-1.101,-1.1027,-1.1037,-1.104,-1.1047,-1.1035,-1.1037,-1.1031,-1.1031,-1.1008,-1.1006,-1.1037,-1.1036,-1.1036,0,-1.083,-1.0833,-1.0858,-1.0864,-1.0874,-1.0884,-1.0892,-1.0914,-1.0921,-1.0941,-1.0943,-1.0956,-1.0968,-1.0985,-1.1003,-1.1016,-1.1023,-1.1014,-1.1026,-1.102,-1.1024,-1.1023,-1.1024,-1.1012,-1.1011,-1.1011,-1.1011,0,-1.0806,-1.0816,-1.0827,-1.0841,-1.085,-1.0862,-1.0876,-1.0879,-1.0904,-1.0911,-1.0923,-1.0932,-1.095,-1.0962,-1.0978,-1.099,-1.1004,-1.1007,-1.1007,-1.1001,-1.0994,-1.0998,-1.1028,-1.1007,-1.1008,-1.1008,-1.1008,-1.1008,-1.0786,-1.0789,-1.0807,-1.0819,-1.0831,-1.0843,-1.0848,-1.0863,-1.0874,-1.089,-1.0902,-1.0913,-1.093,-1.0953,-1.0963,-1.0972,-1.0979,-1.0978,-1.0978,-1.0977,-1.0975,-1.0992,-1.0975,-1.0975,-1.0975,-1.0975,-1.0975,0,-1.0763,-1.0775,-1.0785,-1.0803,-1.0812,-1.0825,-1.084,-1.0847,-1.0856,-1.0871,-1.0882,-1.0896,-1.0908,-1.0927,-1.0941,-1.0944,-1.0951,-1.0947,-1.0947,-1.095,-1.0968,-1.0967,-1.0941,-1.0941,-1.0941,-1.0941,-1.0941,-1.0941,-1.0752,-1.0759,-1.077,-1.0783,-1.0796,-1.0806,-1.0814,-1.0825,-1.0837,-1.0851,-1.0861,-1.0874,-1.089,-1.0905,-1.0917,-1.0923,-1.0927,-1.0921,-1.0928,-1.0945,-1.0948,-1.0951,-1.0951,-1.0921,-1.0921,-1.0909,-1.0908,-1.0908]},{"header":{"parameterUnit":"m.s-1","parameterCategory":1,"la1":30.2991,"la2":30.254,"lo1":-89.0895,"lo2":-89.0444,"dy":0.0017,"dx":0.0017,"nx":28,"ny":28,"refTime":"2024-12-05T03:00:00:Z","depth":0,"parameterNumber":3,"parameterNumberName":"V-component_of_WINDS"},"data":[0,0,0,0,0,0,0,0,0,0,0,0,0,0,0,0,0,0,0,0,0,0,0,0,0,0,0,0,0,0,0,0,0,0,0,0,0,0,0,0,0,0,0,0,0,0,0,0,0,0,0,0,0,0,0,0,0,0,2.3092,2.3093,0,2.3205,2.3206,2.3207,2.3245,2.3245,2.3245,2.3244,2.3361,2.3364,2.3368,0,0,0,0,0,0,0,0,0,0,0,0,0,2.291,2.2913,2.3092,2.3093,2.3094,2.3205,2.3206,2.3208,2.3246,2.3245,2.3244,2.3244,2.336,2.3364,2.3368,0,0,0,0,0,0,0,0,0,0,0,0,0,2.3002,2.2914,2.3091,2.3127,2.3131,2.3204,2.3206,2.3208,2.3246,2.3245,2.3244,2.3244,2.3358,2.3363,2.3369,2.3416,0,0,2.3385,2.3387,0,0,0,0,0,0,0,0,2.2997,2.3009,2.312,2.3124,2.3129,2.321,2.3185,2.3278,2.3246,2.3202,2.3244,2.3243,2.3311,2.332,2.3343,2.3421,2.3426,2.3385,2.3389,2.3391,2.3392,0,0,0,0,0,0,0,2.2991,2.3004,2.3136,2.3122,2.3127,2.3137,2.315,2.3203,2.3259,2.3206,2.3209,2.3222,2.3314,2.3338,2.3346,2.3428,2.3385,2.339,2.3393,2.3395,2.3552,2.3553,0,0,0,0,0,0,2.2978,2.2999,2.3133,2.314,2.306,2.3141,2.3155,2.3185,2.3259,2.3269,2.3222,2.3223,2.3329,2.334,2.3351,2.3412,2.3391,2.3396,2.3399,2.3551,2.3552,2.3553,0,0,0,0,0,0,2.2974,2.299,2.3128,2.307,2.3089,2.3145,2.3178,2.3188,2.3212,2.3271,2.3282,2.3237,2.3329,2.3343,2.34,2.3417,2.3398,2.3403,2.355,2.3551,2.3553,2.3535,0,0,0,0,0,0,2.2969,2.2988,2.3006,2.307,2.3092,2.3175,2.3179,2.319,2.3221,2.3223,2.3288,2.3297,2.333,2.3391,2.3405,2.3424,2.3407,2.3549,2.355,2.3552,2.3534,2.3536,2.3537,0,0,0,0,0,2.2962,2.2996,2.3007,2.3023,2.3115,2.3176,2.3188,2.3224,2.3222,2.3241,2.328,2.3295,2.3412,2.3397,2.3412,2.3433,2.3548,2.355,2.3552,2.3534,2.3535,2.3537,0,0,0,0,0,0,2.2933,2.3005,2.3018,2.3074,2.3118,2.3182,2.3208,2.3225,2.3271,2.3271,2.3314,2.3328,2.3382,2.3413,2.3395,2.3483,2.3481,2.3486,2.3462,2.3464,2.3465,2.3457,2.3412,0,0,0,0,0,2.2933,2.2976,2.3037,2.308,2.3102,2.3151,2.3178,2.3202,2.3251,2.327,2.3312,2.3358,2.3406,2.3436,2.3483,2.3538,2.3554,2.356,2.3561,2.3562,2.3567,2.3601,2.3605,2.356,2.356,2.356,0,0,2.2934,2.2979,2.3003,2.3076,2.3113,2.3157,2.3166,2.3212,2.3246,2.3277,2.3334,2.3366,2.342,2.3477,2.3504,2.3505,2.3582,2.3565,2.3565,2.357,2.3603,2.3608,2.3611,2.3562,2.3562,2.3561,0,0,2.2958,2.2995,2.3037,2.3074,2.3131,2.3163,2.3173,2.3234,2.3257,2.3314,2.3339,2.3379,2.3459,2.3498,2.3528,2.3567,2.3584,2.3581,2.3588,2.3621,2.3624,2.3628,2.3644,2.3649,2.3585,2.3585,2.3585,0,2.2952,2.302,2.3056,2.3101,2.3133,2.3163,2.3206,2.324,2.3309,2.3331,2.333,2.3432,2.3471,2.3538,2.3548,2.357,2.3584,2.3575,2.3621,2.3624,2.3628,2.3644,2.365,2.3584,2.3584,2.3585,2.3585,0,2.301,2.3057,2.3083,2.3149,2.3184,2.3228,2.3272,2.3302,2.3323,2.3356,2.3414,2.3462,2.3519,2.3537,2.3557,2.3607,2.3606,2.3612,2.3611,2.3631,2.3647,2.3653,2.3584,2.3584,2.3584,2.3584,0,0,2.3021,2.3107,2.3116,2.3147,2.3212,2.3249,2.3294,2.335,2.3377,2.3423,2.3463,2.353,2.3537,2.3571,2.3596,2.3624,2.3655,2.3627,2.3629,2.3633,2.3716,2.3712,2.3719,2.3666,2.3667,2.3668,2.3712,0,2.3056,2.3138,2.3173,2.3239,2.3284,2.3312,2.3352,2.3396,2.3428,2.347,2.3505,2.3553,2.3556,2.3578,2.3606,2.3645,2.3673,2.3642,2.3705,2.3707,2.3693,2.3727,2.3723,2.3763,2.3718,2.3719,2.372,0,2.3107,2.3154,2.3226,2.3286,2.3306,2.3341,2.3396,2.3436,2.3487,2.3508,2.3546,2.357,2.362,2.3613,2.3683,2.3662,2.369,2.3712,2.3715,2.3724,2.3717,2.3739,2.3776,2.3783,2.373,2.3729,2.3728,0,2.3111,2.3192,2.3245,2.3271,2.3342,2.3366,2.3397,2.3447,2.3479,2.3527,2.3549,2.3602,2.3631,2.3672,2.371,2.3701,2.3777,2.3774,2.3798,2.3797,2.3815,2.3814,2.3859,2.3828,2.3828,2.3828,2.3828,0,2.3147,2.319,2.3248,2.3281,2.3331,2.337,2.3418,2.3451,2.3495,2.3536,2.3563,2.3601,2.3648,2.3692,2.3721,2.3777,2.3789,2.3808,2.3816,2.3808,2.3806,2.3828,2.3828,2.3829,2.3829,2.3829,2.3828,0,2.3161,2.3201,2.3261,2.3324,2.334,2.3374,2.3428,2.3462,2.3494,2.3546,2.356,2.3612,2.3665,2.3706,2.3775,2.3795,2.3854,2.3861,2.3837,2.3842,2.3865,2.3863,2.3928,2.394,2.3899,2.3899,2.3899,0,2.3182,2.3216,2.3282,2.3312,2.3342,2.3389,2.3422,2.3461,2.3495,2.3556,2.3583,2.3638,2.3685,2.3769,2.3813,2.3866,2.3877,2.3896,2.3885,2.3876,2.388,2.3879,2.3884,2.3898,2.3898,2.3898,2.3898,0,2.3218,2.3236,2.3282,2.3336,2.3375,2.3419,2.3464,2.3486,2.3534,2.357,2.3625,2.3661,2.3732,2.3788,2.3846,2.3879,2.3898,2.3901,2.391,2.3903,2.3889,2.39,2.3844,2.39,2.39,2.39,2.39,2.39,2.3238,2.327,2.3322,2.3373,2.3411,2.3452,2.3488,2.3525,2.3571,2.3632,2.3653,2.371,2.3761,2.3841,2.3874,2.3921,2.3921,2.3934,2.3937,2.394,2.3941,2.3879,2.3931,2.3931,2.3931,2.3931,2.3931,0,2.3277,2.3312,2.3358,2.342,2.3461,2.3473,2.3524,2.3557,2.3607,2.3654,2.3699,2.3763,2.3817,2.3865,2.3921,2.3949,2.396,2.3963,2.3963,2.3971,2.3936,2.3924,2.3954,2.3954,2.3954,2.3954,2.3954,2.3954,2.3302,2.3358,2.3382,2.3458,2.3492,2.3549,2.3577,2.3616,2.3653,2.3723,2.3768,2.3799,2.3847,2.3907,2.3958,2.397,2.3991,2.3993,2.4008,2.3975,2.3973,2.397,2.3959,2.3996,2.3996,2.404,2.404,2.404]}]]